| time (UTC) | temp F | wind direction | speed MPH | gust MPH | rain 1hr in | rain 24hr in | rain mn in | humidity % | barometer mb |
| 20260904075543 | 70 | 90 | 0.0 | 3.0 | 0.00 | 0.44 | 0.00 | 88 | 1014.0 |
| 20260904075046 | 70 | 0 | 0.0 | 3.0 | 0.00 | 0.44 | 0.00 | 87 | 1013.9 |
| 20260904074610 | 70 | 0 | 0.0 | 4.0 | 0.00 | 0.44 | 0.00 | 87 | 1013.8 |
| 20260904074042 | 70 | 91 | 1.0 | 6.0 | 0.00 | 0.44 | 0.00 | 87 | 1013.8 |
| 20260904073542 | 70 | 87 | 2.0 | 6.0 | 0.00 | 0.44 | 0.00 | 86 | 1013.8 |
| 20260904073057 | 70 | 84 | 3.0 | 6.0 | 0.00 | 0.44 | 0.00 | 86 | 1013.9 |
| 20260904072541 | 71 | 80 | 0.0 | 5.0 | 0.00 | 0.44 | 0.00 | 86 | 1013.8 |
| 20260904072043 | 71 | 133 | 0.0 | 6.0 | 0.00 | 0.44 | 0.00 | 85 | 1013.7 |
| 20260904071606 | 71 | 171 | 2.0 | 6.0 | 0.00 | 0.44 | 0.00 | 85 | 1013.6 |
| 20260904071043 | 71 | 0 | 0.0 | 7.0 | 0.00 | 0.44 | 0.00 | 85 | 1013.6 |
| 20260904070542 | 71 | 0 | 1.0 | 8.0 | 0.00 | 0.44 | 0.00 | 85 | 1013.5 |
| 20260904070129 | 71 | 175 | 2.0 | 8.0 | 0.00 | 0.44 | 0.00 | 84 | 1013.6 |
| 20260904065542 | 71 | 171 | 3.0 | 12.0 | 0.00 | 0.44 | 0.00 | 84 | 1013.4 |
| 20260904065044 | 71 | 211 | 7.0 | 12.0 | 0.00 | 0.44 | 0.00 | 84 | 1013.4 |
| 20260904064559 | 71 | 193 | 3.0 | 8.0 | 0.00 | 0.44 | 0.00 | 83 | 1013.2 |
| 20260904064043 | 71 | 232 | 1.0 | 7.0 | 0.00 | 0.44 | 0.00 | 84 | 1013.1 |
| 20260904063543 | 71 | 0 | 3.0 | 13.0 | 0.00 | 0.44 | 0.00 | 84 | 1012.8 |
| 20260904063103 | 71 | 266 | 5.0 | 13.0 | 0.00 | 0.44 | 0.00 | 84 | 1012.7 |
| 20260904062543 | 71 | 267 | 2.0 | 9.0 | 0.00 | 0.44 | 0.00 | 84 | 1012.5 |
| 20260904062042 | 70 | 257 | 4.0 | 9.0 | 0.00 | 0.44 | 0.00 | 85 | 1012.6 |
| 20260904061614 | 71 | 149 | 4.0 | 9.0 | 0.00 | 0.44 | 0.00 | 85 | 1012.6 |
| 20260904061043 | 71 | 0 | 4.0 | 11.0 | 0.00 | 0.44 | 0.00 | 84 | 1012.4 |
| 20260904060542 | 71 | 185 | 3.0 | 11.0 | 0.00 | 0.44 | 0.00 | 84 | 1012.5 |
| 20260904060053 | 71 | 163 | 4.0 | 8.0 | 0.00 | 0.44 | 0.00 | 84 | 1012.6 |
| 20260904055537 | 71 | 0 | 2.0 | 11.0 | 0.00 | 0.44 | 0.00 | 84 | 1012.7 |
| 20260904055041 | 71 | 225 | 2.0 | 11.0 | 0.00 | 0.44 | 0.00 | 84 | 1012.8 |
| 20260904054557 | 71 | 237 | 3.0 | 11.0 | 0.00 | 0.44 | 0.00 | 84 | 1012.9 |
| 20260904054038 | 71 | 246 | 2.0 | 11.0 | 0.00 | 0.44 | 0.00 | 84 | 1013.1 |
| 20260904053538 | 71 | 238 | 1.0 | 9.0 | 0.00 | 0.44 | 0.00 | 84 | 1013.2 |
| 20260904053101 | 70 | 192 | 2.0 | 9.0 | 0.00 | 0.44 | 0.00 | 85 | 1013.4 |
| 20260904052538 | 70 | 259 | 2.0 | 9.0 | 0.00 | 0.44 | 0.00 | 85 | 1013.4 |
| 20260904052038 | 70 | 0 | 2.0 | 9.0 | 0.00 | 0.44 | 0.00 | 87 | 1013.3 |
| 20260904051601 | 69 | 259 | 2.0 | 7.0 | 0.00 | 0.44 | 0.00 | 88 | 1013.3 |
| 20260904051040 | 69 | 267 | 1.0 | 4.0 | 0.00 | 0.44 | 0.00 | 89 | 1013.4 |
| 20260904050540 | 69 | 0 | 0.0 | 4.0 | 0.00 | 0.44 | 0.00 | 90 | 1013.4 |
| 20260904050051 | 69 | 90 | 1.0 | 3.0 | 0.00 | 0.44 | 0.00 | 90 | 1013.5 |
| 20260904045538 | 69 | 91 | 2.0 | 7.0 | 0.00 | 0.44 | 0.00 | 90 | 1013.6 |
| 20260904045040 | 69 | 91 | 0.0 | 7.0 | 0.00 | 0.44 | 0.00 | 89 | 1013.6 |
| 20260904044606 | 69 | 91 | 2.0 | 6.0 | 0.00 | 0.44 | 0.00 | 89 | 1013.6 |
| 20260904044037 | 70 | 123 | 1.0 | 3.0 | 0.00 | 0.44 | 0.00 | 88 | 1013.7 |
| 20260904043551 | 70 | 123 | 0.0 | 2.0 | 0.00 | 0.44 | 0.00 | 87 | 1013.7 |
| 20260904043057 | 70 | 0 | 0.0 | 2.0 | 0.00 | 0.44 | 0.00 | 86 | 1013.9 |
| 20260904042537 | 70 | 0 | 0.0 | 4.0 | 0.00 | 0.44 | 0.00 | 86 | 1013.9 |
| 20260904042038 | 71 | 0 | 1.0 | 8.0 | 0.00 | 0.44 | 0.00 | 85 | 1014.0 |
| 20260904041603 | 71 | 124 | 2.0 | 8.0 | 0.01 | 0.44 | 0.00 | 85 | 1013.9 |
| 20260904041042 | 71 | 328 | 2.0 | 8.0 | 0.01 | 0.44 | 0.00 | 83 | 1014.1 |
| 20260904040541 | 71 | 32 | 1.0 | 6.0 | 0.01 | 0.44 | 0.00 | 84 | 1014.3 |
| 20260904040110 | 72 | 213 | 1.0 | 8.0 | 0.01 | 0.44 | 0.00 | 83 | 1014.3 |
| 20260904035538 | 72 | 319 | 3.0 | 18.0 | 0.01 | 0.44 | 0.44 | 83 | 1014.3 |
| 20260904035037 | 72 | 265 | 3.0 | 18.0 | 0.01 | 0.44 | 0.44 | 83 | 1014.3 |
| 20260904034554 | 72 | 261 | 8.0 | 18.0 | 0.01 | 0.44 | 0.44 | 82 | 1014.3 |
| 20260904034044 | 72 | 245 | 10.0 | 25.0 | 0.01 | 0.44 | 0.44 | 81 | 1014.3 |
| 20260904033537 | 73 | 284 | 15.0 | 27.0 | 0.01 | 0.44 | 0.44 | 81 | 1014.6 |
| 20260904033049 | 73 | 293 | 17.0 | 27.0 | 0.01 | 0.44 | 0.44 | 80 | 1014.9 |
| 20260904032540 | 73 | 240 | 17.0 | 25.0 | 0.01 | 0.44 | 0.44 | 81 | 1015.0 |
| 20260904032037 | 73 | 296 | 14.0 | 25.0 | 0.01 | 0.44 | 0.44 | 80 | 1015.1 |
| 20260904031555 | 74 | 292 | 12.0 | 25.0 | 0.00 | 0.43 | 0.43 | 80 | 1015.4 |
| 20260904031040 | 74 | 300 | 15.0 | 26.0 | 0.00 | 0.43 | 0.43 | 80 | 1015.4 |
| 20260904030538 | 74 | 299 | 16.0 | 26.0 | 0.01 | 0.43 | 0.43 | 81 | 1015.4 |
| 20260904030053 | 74 | 273 | 15.0 | 24.0 | 0.01 | 0.43 | 0.43 | 81 | 1015.5 |
| 20260904025542 | 74 | 282 | 10.0 | 21.0 | 0.01 | 0.43 | 0.43 | 81 | 1015.6 |
| 20260904025044 | 74 | 276 | 12.0 | 21.0 | 0.01 | 0.43 | 0.43 | 82 | 1015.6 |
| 20260904024555 | 75 | 294 | 13.0 | 21.0 | 0.01 | 0.43 | 0.43 | 82 | 1015.7 |
| 20260904024041 | 75 | 295 | 12.0 | 18.0 | 0.01 | 0.43 | 0.43 | 81 | 1015.7 |
| 20260904023540 | 76 | 286 | 10.0 | 18.0 | 0.01 | 0.43 | 0.43 | 79 | 1015.7 |
| 20260904023057 | 75 | 249 | 6.0 | 11.0 | 0.01 | 0.43 | 0.43 | 79 | 1015.5 |
| 20260904022538 | 75 | 281 | 3.0 | 10.0 | 0.01 | 0.43 | 0.43 | 80 | 1015.3 |
| 20260904022040 | 76 | 281 | 6.0 | 10.0 | 0.01 | 0.43 | 0.43 | 80 | 1015.0 |
| 20260904021603 | 76 | 235 | 3.0 | 10.0 | 0.01 | 0.43 | 0.43 | 80 | 1014.6 |
| 20260904021040 | 77 | 282 | 2.0 | 17.0 | 0.01 | 0.43 | 0.43 | 80 | 1014.6 |
| 20260904020537 | 77 | 239 | 7.0 | 17.0 | 0.00 | 0.42 | 0.42 | 79 | 1014.5 |
| 20260904015537 | 77 | 248 | 9.0 | 15.0 | 0.00 | 0.42 | 0.42 | 87 | 1015.0 |
| 20260904015037 | 76 | 264 | 4.0 | 10.0 | 0.00 | 0.42 | 0.42 | 92 | 1014.7 |
| 20260904014639 | 75 | 303 | 6.0 | 10.0 | 0.00 | 0.42 | 0.42 | 93 | 1014.6 |
| 20260904014037 | 75 | 317 | 0.0 | 4.0 | 0.00 | 0.42 | 0.42 | 92 | 1014.6 |
| 20260904013542 | 75 | 0 | 0.0 | 2.0 | 0.00 | 0.42 | 0.42 | 93 | 1014.3 |
| 20260904013054 | 75 | 320 | 0.0 | 2.0 | 0.00 | 0.42 | 0.42 | 92 | 1014.4 |
| 20260904012541 | 75 | 0 | 0.0 | 2.0 | 0.00 | 0.42 | 0.42 | 92 | 1014.3 |
| 20260904012038 | 75 | 0 | 0.0 | 2.0 | 0.00 | 0.42 | 0.42 | 92 | 1014.3 |
| 20260904011628 | 75 | 0 | 0.0 | 2.0 | 0.00 | 0.42 | 0.42 | 93 | 1014.1 |
| 20260904011038 | 75 | 320 | 1.0 | 3.0 | 0.00 | 0.42 | 0.42 | 93 | 1014.0 |
| 20260904010538 | 75 | 0 | 0.0 | 4.0 | 0.00 | 0.42 | 0.42 | 93 | 1013.8 |
| 20260904010108 | 75 | 0 | 2.0 | 4.0 | 0.00 | 0.42 | 0.42 | 93 | 1013.8 |
| 20260904005537 | 75 | 319 | 1.0 | 5.0 | 0.00 | 0.42 | 0.42 | 93 | 1013.9 |
| 20260904005041 | 75 | 319 | 3.0 | 5.0 | 0.00 | 0.42 | 0.42 | 93 | 1014.0 |
| 20260904004600 | 75 | 317 | 2.0 | 4.0 | 0.00 | 0.42 | 0.42 | 92 | 1014.1 |
| 20260904004037 | 75 | 240 | 0.0 | 3.0 | 0.00 | 0.42 | 0.42 | 93 | 1014.0 |
| 20260904003537 | 76 | 0 | 0.0 | 1.0 | 0.00 | 0.42 | 0.42 | 92 | 1014.0 |
| 20260904003102 | 76 | 0 | 0.0 | 0.0 | 0.00 | 0.42 | 0.42 | 92 | 1014.1 |
| 20260904002540 | 76 | 0 | 0.0 | 0.0 | 0.00 | 0.42 | 0.42 | 92 | 1014.2 |
| 20260904002038 | 76 | 0 | 0.0 | 0.0 | 0.00 | 0.42 | 0.42 | 92 | 1014.2 |
| 20260904001551 | 76 | 0 | 0.0 | 0.0 | 0.00 | 0.42 | 0.42 | 92 | 1014.3 |
| 20260904001041 | 76 | 0 | 0.0 | 0.0 | 0.00 | 0.42 | 0.42 | 92 | 1014.3 |
| 20260904000544 | 76 | 0 | 0.0 | 0.0 | 0.00 | 0.42 | 0.42 | 91 | 1014.4 |
| 20260904000051 | 76 | 0 | 0.0 | 1.0 | 0.00 | 0.42 | 0.42 | 91 | 1014.5 |
| 20260903235539 | 76 | 0 | 0.0 | 3.0 | 0.00 | 0.42 | 0.42 | 90 | 1014.6 |
| 20260903235037 | 77 | 0 | 0.0 | 3.0 | 0.00 | 0.42 | 0.42 | 90 | 1014.8 |
| 20260903234559 | 77 | 239 | 1.0 | 2.0 | 0.00 | 0.42 | 0.42 | 89 | 1015.0 |
| 20260903234040 | 77 | 239 | 1.0 | 2.0 | 0.00 | 0.42 | 0.42 | 88 | 1014.9 |
| 20260903233538 | 78 | 0 | 0.0 | 3.0 | 0.00 | 0.42 | 0.42 | 88 | 1014.7 |
| 20260903233111 | 78 | 239 | 0.0 | 4.0 | 0.00 | 0.42 | 0.42 | 89 | 1014.5 |
| 20260903232541 | 78 | 239 | 2.0 | 4.0 | 0.00 | 0.42 | 0.42 | 89 | 1014.3 |
| 20260903232037 | 78 | 239 | 1.0 | 4.0 | 0.00 | 0.42 | 0.42 | 88 | 1014.1 |
| 20260903231555 | 79 | 0 | 0.0 | 0.0 | 0.00 | 0.42 | 0.42 | 87 | 1013.8 |
| 20260903231037 | 79 | 0 | 0.0 | 0.0 | 0.00 | 0.42 | 0.42 | 87 | 1013.6 |
| 20260903230541 | 80 | 0 | 0.0 | 2.0 | 0.00 | 0.42 | 0.42 | 86 | 1013.8 |
| 20260903230056 | 80 | 0 | 0.0 | 2.0 | 0.00 | 0.42 | 0.42 | 86 | 1014.0 |
| 20260903225540 | 81 | 0 | 1.0 | 3.0 | 0.00 | 0.42 | 0.42 | 85 | 1013.9 |
| 20260903225038 | 82 | 202 | 1.0 | 3.0 | 0.00 | 0.42 | 0.42 | 84 | 1013.9 |
| 20260903224600 | 82 | 202 | 1.0 | 3.0 | 0.00 | 0.42 | 0.42 | 83 | 1013.9 |
| 20260903224040 | 83 | 0 | 0.0 | 0.0 | 0.00 | 0.42 | 0.42 | 81 | 1013.7 |
| 20260903223541 | 84 | 0 | 0.0 | 4.0 | 0.00 | 0.42 | 0.42 | 78 | 1013.9 |
| 20260903223113 | 84 | 0 | 0.0 | 4.0 | 0.00 | 0.42 | 0.42 | 76 | 1013.9 |
| 20260903222541 | 84 | 180 | 0.0 | 3.0 | 0.00 | 0.42 | 0.42 | 75 | 1013.9 |
| 20260903222041 | 85 | 0 | 1.0 | 3.0 | 0.00 | 0.42 | 0.42 | 75 | 1013.7 |
| 20260903221556 | 85 | 181 | 0.0 | 5.0 | 0.00 | 0.42 | 0.42 | 74 | 1013.8 |
| 20260903221038 | 85 | 177 | 0.0 | 6.0 | 0.00 | 0.42 | 0.42 | 74 | 1013.8 |
| 20260903220541 | 85 | 155 | 2.0 | 6.0 | 0.00 | 0.42 | 0.42 | 72 | 1013.9 |
| 20260903220120 | 86 | 157 | 0.0 | 5.0 | 0.00 | 0.42 | 0.42 | 72 | 1013.8 |
| 20260903215540 | 86 | 0 | 0.0 | 4.0 | 0.00 | 0.42 | 0.42 | 75 | 1013.7 |
| 20260903215040 | 85 | 0 | 0.0 | 5.0 | 0.00 | 0.42 | 0.42 | 73 | 1013.7 |
| 20260903214550 | 86 | 0 | 2.0 | 5.0 | 0.00 | 0.42 | 0.42 | 75 | 1013.7 |
| 20260903214040 | 85 | 175 | 1.0 | 6.0 | 0.00 | 0.42 | 0.42 | 73 | 1013.8 |
| 20260903213540 | 85 | 167 | 1.0 | 7.0 | 0.00 | 0.42 | 0.42 | 73 | 1013.8 |
| 20260903213056 | 85 | 169 | 3.0 | 7.0 | 0.00 | 0.42 | 0.42 | 72 | 1013.8 |
| 20260903212543 | 85 | 171 | 3.0 | 7.0 | 0.00 | 0.42 | 0.42 | 72 | 1013.9 |
| 20260903212040 | 85 | 155 | 2.0 | 7.0 | 0.00 | 0.42 | 0.42 | 72 | 1013.9 |
| 20260903211555 | 86 | 188 | 2.0 | 6.0 | 0.00 | 0.42 | 0.42 | 71 | 1013.8 |
| 20260903211040 | 86 | 165 | 3.0 | 6.0 | 0.00 | 0.42 | 0.42 | 73 | 1013.8 |
| 20260903210541 | 86 | 156 | 2.0 | 6.0 | 0.00 | 0.42 | 0.42 | 71 | 1013.9 |
| 20260903210058 | 86 | 145 | 2.0 | 6.0 | 0.00 | 0.42 | 0.42 | 71 | 1013.8 |
| 20260903205538 | 86 | 0 | 0.0 | 4.0 | 0.00 | 0.42 | 0.42 | 71 | 1013.8 |
| 20260903205040 | 86 | 0 | 0.0 | 10.0 | 0.00 | 0.42 | 0.42 | 71 | 1013.9 |
| 20260903204547 | 86 | 189 | 4.0 | 10.0 | 0.00 | 0.42 | 0.42 | 71 | 1013.9 |
| 20260903204039 | 86 | 215 | 3.0 | 9.0 | 0.00 | 0.42 | 0.42 | 69 | 1014.0 |
| 20260903203539 | 86 | 184 | 1.0 | 8.0 | 0.00 | 0.42 | 0.42 | 69 | 1014.0 |
| 20260903203107 | 86 | 0 | 3.0 | 8.0 | 0.00 | 0.42 | 0.42 | 68 | 1014.0 |
| 20260903202542 | 86 | 189 | 0.0 | 9.0 | 0.00 | 0.42 | 0.42 | 69 | 1014.0 |
| 20260903202043 | 86 | 206 | 2.0 | 9.0 | 0.00 | 0.42 | 0.42 | 70 | 1014.1 |
| 20260903201556 | 85 | 228 | 5.0 | 9.0 | 0.00 | 0.42 | 0.42 | 69 | 1014.1 |
| 20260903201042 | 85 | 0 | 4.0 | 10.0 | 0.00 | 0.42 | 0.42 | 71 | 1014.2 |
| 20260903200543 | 85 | 287 | 4.0 | 10.0 | 0.00 | 0.42 | 0.42 | 69 | 1014.2 |
| 20260903200052 | 85 | 186 | 3.0 | 11.0 | 0.00 | 0.42 | 0.42 | 67 | 1014.3 |
| 20260903195544 | 85 | 217 | 5.0 | 11.0 | 0.00 | 0.42 | 0.42 | 66 | 1014.4 |
| 20260903195042 | 85 | 239 | 5.0 | 10.0 | 0.00 | 0.42 | 0.42 | 68 | 1014.4 |
| 20260903194559 | 85 | 206 | 2.0 | 9.0 | 0.00 | 0.42 | 0.42 | 72 | 1014.4 |
| 20260903194041 | 85 | 248 | 4.0 | 13.0 | 0.00 | 0.42 | 0.42 | 67 | 1014.5 |
| 20260903193541 | 85 | 219 | 6.0 | 13.0 | 0.00 | 0.42 | 0.42 | 67 | 1014.6 |
| 20260903193105 | 85 | 165 | 3.0 | 9.0 | 0.00 | 0.42 | 0.42 | 68 | 1014.6 |
| 20260903192545 | 85 | 171 | 5.0 | 9.0 | 0.00 | 0.42 | 0.42 | 68 | 1014.7 |
| 20260903192041 | 85 | 208 | 2.0 | 11.0 | 0.00 | 0.42 | 0.42 | 72 | 1014.7 |
| 20260903191554 | 84 | 0 | 2.0 | 11.0 | 0.00 | 0.42 | 0.42 | 70 | 1014.9 |
| 20260903191042 | 84 | 251 | 3.0 | 9.0 | 0.00 | 0.42 | 0.42 | 72 | 1015.0 |
| 20260903190546 | 84 | 132 | 2.0 | 8.0 | 0.00 | 0.42 | 0.42 | 71 | 1015.0 |
| 20260903190052 | 84 | 235 | 3.0 | 7.0 | 0.00 | 0.42 | 0.42 | 74 | 1015.0 |
| 20260903185542 | 83 | 249 | 0.0 | 11.0 | 0.00 | 0.42 | 0.42 | 71 | 1015.0 |
| 20260903185042 | 83 | 309 | 4.0 | 11.0 | 0.00 | 0.42 | 0.42 | 71 | 1015.3 |
| 20260903184555 | 83 | 247 | 4.0 | 11.0 | 0.00 | 0.42 | 0.42 | 71 | 1015.3 |
| 20260903184039 | 83 | 186 | 4.0 | 9.0 | 0.00 | 0.42 | 0.42 | 69 | 1015.4 |
| 20260903183541 | 83 | 0 | 2.0 | 7.0 | 0.00 | 0.42 | 0.42 | 71 | 1015.3 |
| 20260903183053 | 82 | 308 | 2.0 | 12.0 | 0.00 | 0.42 | 0.42 | 75 | 1015.4 |
| 20260903182543 | 82 | 293 | 4.0 | 12.0 | 0.00 | 0.42 | 0.42 | 72 | 1015.5 |
| 20260903182042 | 82 | 264 | 6.0 | 12.0 | 0.00 | 0.42 | 0.42 | 69 | 1015.5 |
| 20260903181551 | 82 | 253 | 5.0 | 12.0 | 0.00 | 0.42 | 0.42 | 70 | 1015.5 |
| 20260903181042 | 82 | 203 | 4.0 | 9.0 | 0.00 | 0.42 | 0.42 | 71 | 1015.6 |
| 20260903180542 | 82 | 0 | 3.0 | 9.0 | 0.00 | 0.42 | 0.42 | 74 | 1015.7 |
| 20260903180051 | 82 | 0 | 3.0 | 7.0 | 0.00 | 0.42 | 0.42 | 72 | 1015.7 |
| 20260903175542 | 82 | 155 | 1.0 | 11.0 | 0.00 | 0.45 | 0.42 | 77 | 1015.7 |
| 20260903175042 | 80 | 211 | 3.0 | 11.0 | 0.00 | 0.45 | 0.42 | 75 | 1015.9 |
| 20260903174558 | 79 | 282 | 2.0 | 9.0 | 0.00 | 0.45 | 0.42 | 77 | 1015.8 |
| 20260903174040 | 79 | 121 | 2.0 | 9.0 | 0.00 | 0.45 | 0.42 | 78 | 1015.8 |
| 20260903173542 | 79 | 138 | 4.0 | 9.0 | 0.00 | 0.45 | 0.42 | 79 | 1016.0 |
| 20260903173058 | 79 | 128 | 2.0 | 8.0 | 0.00 | 0.45 | 0.42 | 78 | 1016.2 |
| 20260903172543 | 79 | 159 | 2.0 | 8.0 | 0.00 | 0.45 | 0.42 | 78 | 1016.1 |
| 20260903172043 | 79 | 121 | 4.0 | 8.0 | 0.00 | 0.45 | 0.42 | 79 | 1016.2 |
| 20260903171603 | 79 | 153 | 3.0 | 8.0 | 0.00 | 0.45 | 0.42 | 78 | 1016.1 |
| 20260903171043 | 79 | 0 | 2.0 | 8.0 | 0.00 | 0.45 | 0.42 | 81 | 1016.2 |
| 20260903170542 | 78 | 0 | 1.0 | 9.0 | 0.00 | 0.45 | 0.42 | 81 | 1016.4 |
| 20260903170059 | 78 | 161 | 4.0 | 9.0 | 0.00 | 0.45 | 0.42 | 80 | 1016.4 |
| 20260903165542 | 78 | 210 | 4.0 | 7.0 | 0.00 | 0.71 | 0.42 | 80 | 1016.5 |
| 20260903165045 | 78 | 142 | 3.0 | 9.0 | 0.00 | 0.71 | 0.42 | 82 | 1016.7 |
| 20260903164602 | 78 | 0 | 3.0 | 9.0 | 0.00 | 0.71 | 0.42 | 82 | 1016.7 |
| 20260903164043 | 78 | 0 | 1.0 | 6.0 | 0.00 | 0.71 | 0.42 | 80 | 1016.7 |
| 20260903163543 | 78 | 0 | 0.0 | 3.0 | 0.00 | 0.71 | 0.42 | 85 | 1016.8 |
| 20260903163101 | 77 | 0 | 0.0 | 6.0 | 0.00 | 0.71 | 0.42 | 84 | 1016.7 |
| 20260903162542 | 77 | 0 | 2.0 | 6.0 | 0.00 | 0.71 | 0.42 | 84 | 1016.7 |
| 20260903162044 | 77 | 0 | 0.0 | 5.0 | 0.00 | 0.71 | 0.42 | 84 | 1016.8 |
| 20260903161606 | 77 | 146 | 0.0 | 7.0 | 0.00 | 0.71 | 0.42 | 87 | 1016.8 |
| 20260903161042 | 76 | 119 | 3.0 | 7.0 | 0.00 | 0.71 | 0.42 | 87 | 1017.1 |
| 20260903160540 | 76 | 136 | 1.0 | 6.0 | 0.00 | 0.71 | 0.42 | 89 | 1017.1 |
| 20260903155546 | 74 | 0 | 0.0 | 6.0 | 0.00 | 0.71 | 0.42 | 91 | 1017.5 |
| 20260903155042 | 73 | 295 | 1.0 | 7.0 | 0.01 | 0.71 | 0.42 | 90 | 1017.7 |
| 20260903154556 | 73 | 234 | 1.0 | 7.0 | 0.02 | 0.71 | 0.42 | 91 | 1017.7 |
| 20260903154042 | 73 | 0 | 1.0 | 7.0 | 0.02 | 0.71 | 0.42 | 92 | 1017.8 |
| 20260903153541 | 73 | 0 | 1.0 | 6.0 | 0.04 | 0.71 | 0.42 | 93 | 1017.7 |
| 20260903153105 | 72 | 227 | 1.0 | 6.0 | 0.06 | 0.71 | 0.42 | 92 | 1017.5 |
| 20260903152543 | 72 | 0 | 0.0 | 2.0 | 0.10 | 0.71 | 0.42 | 93 | 1017.5 |
| 20260903152042 | 71 | 0 | 0.0 | 6.0 | 0.12 | 0.71 | 0.42 | 93 | 1017.4 |
| 20260903151556 | 71 | 68 | 0.0 | 6.0 | 0.12 | 0.71 | 0.42 | 92 | 1017.3 |
| 20260903151042 | 71 | 64 | 4.0 | 8.0 | 0.12 | 0.71 | 0.42 | 92 | 1017.4 |
| 20260903150542 | 71 | 74 | 0.0 | 8.0 | 0.12 | 0.71 | 0.42 | 91 | 1017.1 |
| 20260903150113 | 71 | 199 | 3.0 | 12.0 | 0.12 | 0.71 | 0.42 | 91 | 1017.6 |
| 20260903145542 | 71 | 0 | 3.0 | 12.0 | 0.12 | 0.71 | 0.42 | 91 | 1018.0 |
| 20260903145042 | 71 | 142 | 6.0 | 12.0 | 0.11 | 0.70 | 0.41 | 91 | 1018.1 |
| 20260903144606 | 71 | 137 | 4.0 | 8.0 | 0.10 | 0.69 | 0.40 | 90 | 1018.8 |
| 20260903144041 | 72 | 0 | 2.0 | 14.0 | 0.10 | 0.69 | 0.40 | 89 | 1019.2 |
| 20260903143541 | 72 | 0 | 2.0 | 14.0 | 0.08 | 0.67 | 0.38 | 88 | 1019.2 |
| 20260903143058 | 73 | 320 | 3.0 | 23.0 | 0.06 | 0.65 | 0.36 | 88 | 1019.3 |
| 20260903142542 | 73 | 315 | 9.0 | 26.0 | 0.02 | 0.61 | 0.32 | 87 | 1019.4 |
| 20260903142042 | 73 | 296 | 14.0 | 27.0 | 0.00 | 0.58 | 0.30 | 87 | 1019.4 |
| 20260903141556 | 74 | 296 | 19.0 | 27.0 | 0.00 | 0.58 | 0.30 | 87 | 1019.5 |
| 20260903141042 | 75 | 302 | 2.0 | 9.0 | 0.00 | 0.58 | 0.30 | 88 | 1018.4 |
| 20260903140832 | 75 | 0 | 2.0 | 4.0 | 0.00 | 0.58 | 0.30 | 87 | 1017.5 |
| 20260903140201 | 75 | 240 | 1.0 | 6.0 | 0.00 | 0.58 | 0.30 | 85 | 1017.3 |
| 20260903135542 | 76 | 238 | 1.0 | 7.0 | 0.00 | 0.58 | 0.30 | 84 | 1017.3 |
| 20260903135042 | 76 | 183 | 2.0 | 9.0 | 0.00 | 0.58 | 0.30 | 84 | 1017.2 |
| 20260903134616 | 76 | 205 | 2.0 | 9.0 | 0.00 | 0.58 | 0.30 | 85 | 1017.0 |
| 20260903134042 | 76 | 196 | 2.0 | 8.0 | 0.00 | 0.58 | 0.30 | 85 | 1017.0 |
| 20260903133544 | 76 | 155 | 0.0 | 5.0 | 0.00 | 0.58 | 0.30 | 88 | 1017.1 |
| 20260903133101 | 75 | 0 | 0.0 | 5.0 | 0.00 | 0.58 | 0.30 | 91 | 1017.0 |
| 20260903132541 | 75 | 169 | 1.0 | 5.0 | 0.00 | 0.58 | 0.30 | 92 | 1017.0 |
| 20260903132042 | 74 | 145 | 1.0 | 5.0 | 0.00 | 0.58 | 0.30 | 92 | 1017.1 |
| 20260903131605 | 73 | 188 | 2.0 | 5.0 | 0.00 | 0.58 | 0.30 | 93 | 1017.2 |
| 20260903131041 | 73 | 204 | 1.0 | 4.0 | 0.00 | 0.58 | 0.30 | 94 | 1017.2 |
| 20260903130543 | 73 | 188 | 1.0 | 5.0 | 0.00 | 0.58 | 0.30 | 95 | 1017.2 |
| 20260903130105 | 72 | 196 | 0.0 | 5.0 | 0.00 | 0.58 | 0.30 | 95 | 1017.3 |
| 20260903125542 | 72 | 208 | 0.0 | 6.0 | 0.01 | 0.58 | 0.30 | 96 | 1017.5 |
| 20260903125042 | 72 | 207 | 1.0 | 6.0 | 0.01 | 0.58 | 0.30 | 96 | 1017.3 |
| 20260903124600 | 71 | 191 | 0.0 | 2.0 | 0.01 | 0.58 | 0.30 | 96 | 1017.5 |
| 20260903124042 | 71 | 0 | 0.0 | 2.0 | 0.01 | 0.58 | 0.30 | 96 | 1017.5 |
| 20260903123544 | 71 | 0 | 0.0 | 5.0 | 0.01 | 0.58 | 0.30 | 96 | 1017.5 |
| 20260903123103 | 70 | 0 | 0.0 | 5.0 | 0.01 | 0.58 | 0.30 | 96 | 1017.3 |
| 20260903122542 | 70 | 0 | 1.0 | 4.0 | 0.01 | 0.58 | 0.30 | 96 | 1017.5 |
| 20260903122041 | 70 | 0 | 0.0 | 7.0 | 0.02 | 0.58 | 0.30 | 96 | 1017.4 |
| 20260903121601 | 69 | 220 | 1.0 | 7.0 | 0.02 | 0.58 | 0.30 | 96 | 1017.8 |
| 20260903121042 | 69 | 179 | 0.0 | 6.0 | 0.03 | 0.58 | 0.30 | 96 | 1017.7 |
| 20260903120542 | 69 | 0 | 0.0 | 6.0 | 0.04 | 0.58 | 0.30 | 96 | 1018.0 |
| 20260903120118 | 69 | 202 | 1.0 | 6.0 | 0.04 | 0.58 | 0.30 | 96 | 1018.0 |
| 20260903115542 | 69 | 209 | 1.0 | 4.0 | 0.04 | 0.58 | 0.29 | 96 | 1017.8 |
| 20260903115042 | 69 | 241 | 0.0 | 3.0 | 0.04 | 0.58 | 0.29 | 96 | 1018.0 |
| 20260903114553 | 69 | 242 | 0.0 | 4.0 | 0.04 | 0.58 | 0.29 | 96 | 1017.8 |
| 20260903114042 | 69 | 0 | 0.0 | 4.0 | 0.04 | 0.58 | 0.29 | 96 | 1018.0 |
| 20260903113541 | 69 | 213 | 0.0 | 5.0 | 0.04 | 0.58 | 0.29 | 96 | 1018.2 |
| 20260903113056 | 69 | 182 | 0.0 | 5.0 | 0.04 | 0.58 | 0.29 | 96 | 1018.1 |
| 20260903112543 | 69 | 176 | 1.0 | 5.0 | 0.04 | 0.58 | 0.29 | 96 | 1017.7 |
| 20260903112043 | 69 | 248 | 2.0 | 5.0 | 0.03 | 0.57 | 0.28 | 95 | 1018.2 |
| 20260903111554 | 69 | 157 | 0.0 | 5.0 | 0.03 | 0.57 | 0.28 | 95 | 1017.2 |
| 20260903111042 | 69 | 153 | 4.0 | 5.0 | 0.02 | 0.56 | 0.27 | 95 | 1017.9 |
| 20260903110540 | 68 | 0 | 0.0 | 3.0 | 0.01 | 0.55 | 0.26 | 95 | 1018.2 |
| 20260903110103 | 68 | 222 | 1.0 | 3.0 | 0.02 | 0.55 | 0.26 | 95 | 1018.8 |
| 20260903105544 | 69 | 0 | 0.0 | 4.0 | 0.01 | 0.54 | 0.25 | 95 | 1018.9 |
| 20260903105042 | 69 | 223 | 1.0 | 4.0 | 0.11 | 0.54 | 0.25 | 95 | 1019.3 |
| 20260903104614 | 69 | 215 | 1.0 | 3.0 | 0.13 | 0.54 | 0.25 | 95 | 1019.1 |
| 20260903104041 | 69 | 0 | 0.0 | 0.0 | 0.13 | 0.54 | 0.25 | 95 | 1018.8 |
| 20260903103544 | 69 | 0 | 0.0 | 2.0 | 0.15 | 0.54 | 0.25 | 95 | 1019.1 |
| 20260903103053 | 69 | 0 | 0.0 | 2.0 | 0.22 | 0.54 | 0.25 | 95 | 1019.1 |
| 20260903102543 | 69 | 0 | 0.0 | 2.0 | 0.25 | 0.54 | 0.25 | 95 | 1018.9 |
| 20260903102042 | 69 | 0 | 0.0 | 3.0 | 0.25 | 0.54 | 0.25 | 95 | 1018.9 |
| 20260903101552 | 69 | 0 | 0.0 | 4.0 | 0.25 | 0.54 | 0.25 | 95 | 1018.4 |
| 20260903101042 | 69 | 40 | 2.0 | 8.0 | 0.25 | 0.54 | 0.25 | 95 | 1018.4 |
| 20260903100542 | 69 | 302 | 3.0 | 8.0 | 0.25 | 0.54 | 0.25 | 95 | 1018.5 |
| 20260903100056 | 69 | 281 | 1.0 | 9.0 | 0.24 | 0.52 | 0.24 | 95 | 1018.9 |
| 20260903095541 | 69 | 65 | 5.0 | 9.0 | 0.24 | 0.52 | 0.24 | 95 | 1018.4 |
| 20260903095042 | 69 | 5 | 7.0 | 9.0 | 0.13 | 0.42 | 0.13 | 95 | 1019.3 |
| 20260903094604 | 69 | 329 | 3.0 | 10.0 | 0.12 | 0.41 | 0.12 | 95 | 1019.2 |
| 20260903094043 | 69 | 25 | 4.0 | 10.0 | 0.12 | 0.41 | 0.12 | 95 | 1018.7 |
| 20260903093543 | 69 | 23 | 6.0 | 15.0 | 0.09 | 0.38 | 0.09 | 95 | 1018.7 |
| 20260903093052 | 69 | 351 | 6.0 | 16.0 | 0.03 | 0.32 | 0.03 | 95 | 1018.9 |
| 20260903092545 | 70 | 342 | 11.0 | 16.0 | 0.00 | 0.29 | 0.00 | 95 | 1018.8 |
| 20260903092042 | 70 | 342 | 7.0 | 12.0 | 0.00 | 0.29 | 0.00 | 95 | 1018.7 |
| 20260903091614 | 70 | 54 | 2.0 | 5.0 | 0.00 | 0.29 | 0.00 | 95 | 1018.0 |
| 20260903091043 | 70 | 0 | 3.0 | 5.0 | 0.00 | 0.29 | 0.00 | 95 | 1017.8 |
| 20260903090542 | 70 | 34 | 2.0 | 6.0 | 0.00 | 0.29 | 0.00 | 95 | 1017.7 |
| 20260903090058 | 70 | 5 | 3.0 | 8.0 | 0.00 | 0.29 | 0.00 | 95 | 1017.9 |
| 20260903085542 | 70 | 9 | 4.0 | 8.0 | 0.00 | 0.29 | 0.00 | 95 | 1018.3 |
| 20260903085042 | 70 | 348 | 2.0 | 7.0 | 0.00 | 0.29 | 0.00 | 95 | 1018.1 |
| 20260903084554 | 70 | 63 | 2.0 | 8.0 | 0.00 | 0.29 | 0.00 | 95 | 1018.1 |
| 20260903084043 | 70 | 0 | 2.0 | 8.0 | 0.00 | 0.29 | 0.00 | 95 | 1018.0 |
| 20260903083546 | 70 | 59 | 4.0 | 8.0 | 0.00 | 0.29 | 0.00 | 95 | 1018.0 |
| 20260903083049 | 71 | 38 | 3.0 | 6.0 | 0.00 | 0.29 | 0.00 | 95 | 1018.1 |
| 20260903082543 | 70 | 31 | 3.0 | 6.0 | 0.00 | 0.29 | 0.00 | 95 | 1018.2 |
| 20260903082041 | 71 | 57 | 1.0 | 6.0 | 0.00 | 0.29 | 0.00 | 95 | 1018.1 |
| 20260903081554 | 71 | 36 | 2.0 | 4.0 | 0.00 | 0.29 | 0.00 | 95 | 1018.1 |
| 20260903081043 | 71 | 67 | 2.0 | 8.0 | 0.00 | 0.29 | 0.00 | 95 | 1018.3 |
| 20260903080542 | 71 | 21 | 2.0 | 15.0 | 0.00 | 0.29 | 0.00 | 95 | 1018.1 |
| 20260903080054 | 71 | 46 | 5.0 | 17.0 | 0.00 | 0.29 | 0.00 | 96 | 1017.8 |